| time (UTC) | temp C | wind direction | speed KPH | gust KPH | rain 1hr cm | rain 24hr cm | rain mn cm | humidity % | barometer mb |
| 20260503051342 | 0 | 323 | 0.0 | 0.0 | 0.00 | 0.05 | 0.05 | 83 | |
| 20260503050821 | 0 | 323 | 0.0 | 0.0 | 0.00 | 0.05 | 0.05 | 83 | |
| 20260503050320 | 0 | 322 | 0.0 | 0.0 | 0.00 | 0.05 | 0.05 | 83 | |
| 20260503045820 | 0 | 322 | 0.0 | 0.0 | 0.00 | 0.05 | 0.05 | 83 | |
| 20260503045321 | 0 | 322 | 0.0 | 0.0 | 0.00 | 0.05 | 0.05 | 83 | |
| 20260503044842 | 0 | 322 | 0.0 | 0.0 | 0.00 | 0.05 | 0.05 | 82 | |
| 20260503044322 | 0 | 320 | 0.0 | 0.0 | 0.00 | 0.05 | 0.05 | 82 | |
| 20260503043822 | 0 | 320 | 0.0 | 0.0 | 0.00 | 0.05 | 0.05 | 82 | |
| 20260503043320 | 1 | 320 | 0.0 | 0.0 | 0.00 | 0.05 | 0.05 | 82 | |
| 20260503042820 | 1 | 320 | 0.0 | 0.0 | 0.00 | 0.05 | 0.05 | 81 | |
| 20260503042321 | 1 | 320 | 0.0 | 0.0 | 0.00 | 0.05 | 0.05 | 81 | |
| 20260503041841 | 1 | 318 | 0.0 | 0.0 | 0.00 | 0.05 | 0.05 | 81 | |
| 20260503041340 | 1 | 318 | 0.0 | 0.0 | 0.00 | 0.05 | 0.05 | 80 | |
| 20260503040818 | 1 | 318 | 0.0 | 0.0 | 0.00 | 0.05 | 0.05 | 80 | |
| 20260503040317 | 1 | 318 | 0.0 | 0.0 | 0.00 | 0.05 | 0.05 | 80 | |
| 20260503035817 | 1 | 318 | 0.0 | 0.0 | 0.00 | 0.05 | 0.05 | 80 | |
| 20260503035336 | 1 | 318 | 0.0 | 0.0 | 0.00 | 0.05 | 0.05 | 79 | |
| 20260503034815 | 1 | 318 | 0.0 | 0.0 | 0.00 | 0.05 | 0.05 | 79 | |
| 20260503034314 | 1 | 318 | 0.0 | 0.0 | 0.00 | 0.05 | 0.05 | 78 | |
| 20260503033833 | 1 | 318 | 0.0 | 0.0 | 0.00 | 0.05 | 0.05 | 78 | |
| 20260503033331 | 2 | 318 | 0.0 | 0.0 | 0.00 | 0.05 | 0.05 | 77 | |
| 20260503032830 | 2 | 317 | 0.0 | 0.0 | 0.00 | 0.13 | 0.05 | 77 | |
| 20260503032330 | 2 | 318 | 0.0 | 0.0 | 0.00 | 0.13 | 0.05 | 77 | |
| 20260503031831 | 2 | 317 | 0.0 | 0.0 | 0.00 | 0.13 | 0.05 | 76 | |
| 20260503031331 | 2 | 317 | 0.0 | 0.0 | 0.00 | 0.13 | 0.05 | 76 | |
| 20260503030851 | 2 | 317 | 0.0 | 0.0 | 0.00 | 0.13 | 0.05 | 75 | |
| 20260503030330 | 2 | 314 | 0.0 | 0.0 | 0.00 | 0.13 | 0.05 | 75 | |
| 20260503025831 | 2 | 314 | 0.0 | 0.0 | 0.00 | 0.13 | 0.05 | 74 | |
| 20260503025330 | 2 | 314 | 0.0 | 0.0 | 0.00 | 0.13 | 0.05 | 72 | |
| 20260503024832 | 3 | 314 | 0.0 | 0.0 | 0.00 | 0.13 | 0.05 | 71 | |
| 20260503024331 | 3 | 314 | 0.0 | 0.0 | 0.00 | 0.13 | 0.05 | 71 | |
| 20260503023830 | 3 | 314 | 0.0 | 0.0 | 0.00 | 0.13 | 0.05 | 70 | |
| 20260503023329 | 3 | 314 | 0.0 | 0.0 | 0.00 | 0.13 | 0.05 | 70 | |
| 20260503022829 | 3 | 314 | 0.0 | 0.0 | 0.00 | 0.18 | 0.05 | 69 | |
| 20260503022329 | 4 | 314 | 0.0 | 0.0 | 0.00 | 0.18 | 0.05 | 68 | |
| 20260503021829 | 4 | 314 | 0.0 | 0.0 | 0.00 | 0.18 | 0.05 | 67 | |
| 20260503021330 | 4 | 314 | 0.0 | 0.0 | 0.00 | 0.18 | 0.05 | 67 | |
| 20260503020829 | 4 | 314 | 0.0 | 0.0 | 0.00 | 0.18 | 0.05 | 67 | |
| 20260503020330 | 4 | 314 | 0.0 | 0.0 | 0.00 | 0.18 | 0.05 | 66 | |
| 20260503015849 | 5 | 314 | 0.0 | 0.0 | 0.00 | 0.18 | 0.05 | 66 | |
| 20260503015327 | 5 | 314 | 0.0 | 0.0 | 0.00 | 0.18 | 0.05 | 66 | |
| 20260503014826 | 5 | 308 | 0.0 | 0.0 | 0.00 | 0.18 | 0.05 | 66 | |
| 20260503014346 | 5 | 307 | 0.0 | 0.0 | 0.00 | 0.18 | 0.05 | 66 | |
| 20260503013826 | 5 | 307 | 0.0 | 3.2 | 0.00 | 0.18 | 0.05 | 65 | |
| 20260503013325 | 5 | 308 | 0.0 | 3.2 | 0.00 | 0.18 | 0.05 | 65 | |
| 20260503012826 | 5 | 308 | 0.0 | 9.7 | 0.00 | 0.25 | 0.05 | 64 | |
| 20260503012326 | 5 | 318 | 3.2 | 9.7 | 0.00 | 0.25 | 0.05 | 64 | |
| 20260503011826 | 5 | 315 | 3.2 | 9.7 | 0.00 | 0.25 | 0.05 | 64 | |
| 20260503011327 | 5 | 295 | 3.2 | 9.7 | 0.00 | 0.25 | 0.05 | 63 | |
| 20260503010826 | 5 | 308 | 1.6 | 6.4 | 0.00 | 0.25 | 0.05 | 63 | |
| 20260503010328 | 5 | 305 | 1.6 | 6.4 | 0.00 | 0.25 | 0.05 | 62 | |
| 20260503005825 | 5 | 300 | 0.0 | 3.2 | 0.00 | 0.25 | 0.05 | 62 | |
| 20260503005343 | 6 | 291 | 0.0 | 3.2 | 0.00 | 0.25 | 0.05 | 61 | |
| 20260503004823 | 6 | 291 | 0.0 | 1.6 | 0.00 | 0.25 | 0.05 | 62 | |
| 20260503004324 | 6 | 287 | 0.0 | 4.8 | 0.00 | 0.25 | 0.05 | 61 | |
| 20260503003844 | 6 | 289 | 1.6 | 8.0 | 0.00 | 0.25 | 0.05 | 61 | |
| 20260503003343 | 6 | 288 | 3.2 | 8.0 | 0.00 | 0.25 | 0.05 | 61 | |
| 20260503002821 | 6 | 311 | 0.0 | 6.4 | 0.00 | 0.25 | 0.05 | 61 | |
| 20260503002341 | 6 | 318 | 1.6 | 6.4 | 0.00 | 0.25 | 0.05 | 60 | |
| 20260503001833 | 6 | 308 | 0.0 | 9.7 | 0.00 | 0.25 | 0.05 | 60 | |
| 20260503001332 | 6 | 314 | 4.8 | 11.3 | 0.00 | 0.25 | 0.05 | 59 | |
| 20260503000852 | 6 | 293 | 1.6 | 11.3 | 0.00 | 0.25 | 0.05 | 57 | |
| 20260503000333 | 6 | 282 | 6.4 | 11.3 | 0.00 | 0.25 | 0.05 | 56 | |
| 20260502235832 | 6 | 284 | 3.2 | 8.0 | 0.00 | 0.25 | 0.05 | 55 | |
| 20260502235354 | 7 | 293 | 0.0 | 6.4 | 0.00 | 0.25 | 0.05 | 54 | |
| 20260502234832 | 7 | 297 | 0.0 | 6.4 | 0.00 | 0.25 | 0.05 | 54 | |
| 20260502234330 | 7 | 281 | 0.0 | 4.8 | 0.00 | 0.25 | 0.05 | 54 | |
| 20260502233830 | 7 | 301 | 0.0 | 4.8 | 0.00 | 0.25 | 0.05 | 53 | |
| 20260502233350 | 7 | 300 | 1.6 | 4.8 | 0.00 | 0.25 | 0.05 | 53 | |
| 20260502232829 | 7 | 299 | 0.0 | 8.0 | 0.00 | 0.25 | 0.05 | 52 | |
| 20260502232329 | 7 | 305 | 1.6 | 12.9 | 0.00 | 0.25 | 0.05 | 52 | |
| 20260502231831 | 7 | 279 | 6.4 | 12.9 | 0.00 | 0.25 | 0.05 | 52 | |
| 20260502231330 | 7 | 287 | 1.6 | 11.3 | 0.00 | 0.25 | 0.05 | 52 | |
| 20260502230830 | 7 | 286 | 8.0 | 11.3 | 0.00 | 0.25 | 0.05 | 51 | |
| 20260502230332 | 7 | 320 | 4.8 | 11.3 | 0.00 | 0.25 | 0.05 | 52 | |
| 20260502225851 | 7 | 264 | 8.0 | 12.9 | 0.00 | 0.25 | 0.05 | 51 | |
| 20260502225329 | 7 | 281 | 3.2 | 12.9 | 0.00 | 0.25 | 0.05 | 51 | |
| 20260502224830 | 7 | 316 | 6.4 | 14.5 | 0.00 | 0.25 | 0.05 | 50 | |
| 20260502224331 | 7 | 278 | 8.0 | 16.1 | 0.00 | 0.25 | 0.05 | 49 | |
| 20260502223830 | 7 | 216 | 6.4 | 16.1 | 0.00 | 0.25 | 0.05 | 49 | |
| 20260502223329 | 7 | 307 | 8.0 | 14.5 | 0.00 | 0.25 | 0.05 | 50 | |
| 20260502222848 | 7 | 278 | 4.8 | 17.7 | 0.00 | 0.25 | 0.05 | 49 | |
| 20260502222326 | 7 | 285 | 9.7 | 17.7 | 0.00 | 0.25 | 0.05 | 49 | |
| 20260502221828 | 7 | 316 | 9.7 | 16.1 | 0.00 | 0.25 | 0.05 | 49 | |
| 20260502221326 | 7 | 296 | 9.7 | 17.7 | 0.00 | 0.25 | 0.05 | 48 | |
| 20260502220827 | 8 | 287 | 9.7 | 17.7 | 0.00 | 0.25 | 0.05 | 48 | |
| 20260502220326 | 7 | 282 | 6.4 | 14.5 | 0.00 | 0.25 | 0.05 | 48 | |
| 20260502215825 | 7 | 307 | 4.8 | 17.7 | 0.00 | 0.25 | 0.05 | 48 | |
| 20260502215324 | 7 | 320 | 8.0 | 19.3 | 0.00 | 0.25 | 0.05 | 48 | |
| 20260502214824 | 8 | 268 | 9.7 | 19.3 | 0.00 | 0.25 | 0.05 | 47 | |
| 20260502214323 | 8 | 247 | 8.0 | 17.7 | 0.00 | 0.25 | 0.05 | 47 | |
| 20260502213823 | 8 | 279 | 4.8 | 17.7 | 0.00 | 0.25 | 0.05 | 47 | |
| 20260502213342 | 8 | 282 | 4.8 | 17.7 | 0.00 | 0.25 | 0.05 | 46 | |
| 20260502212822 | 8 | 265 | 9.7 | 17.7 | 0.00 | 0.25 | 0.05 | 45 | |
| 20260502212342 | 8 | 290 | 9.7 | 16.1 | 0.00 | 0.25 | 0.05 | 44 | |
| 20260502211821 | 8 | 324 | 4.8 | 17.7 | 0.00 | 0.25 | 0.05 | 44 | |
| 20260502211321 | 8 | 319 | 8.0 | 17.7 | 0.00 | 0.25 | 0.05 | 43 | |
| 20260502210840 | 9 | 291 | 6.4 | 17.7 | 0.00 | 0.25 | 0.05 | 42 | |
| 20260502210320 | 9 | 257 | 6.4 | 17.7 | 0.00 | 0.25 | 0.05 | 42 | |
| 20260502205835 | 9 | 258 | 4.8 | 17.7 | 0.00 | 0.25 | 0.05 | 42 | |
| 20260502205355 | 9 | 269 | 4.8 | 14.5 | 0.00 | 0.25 | 0.05 | 42 | |
| 20260502204854 | 9 | 285 | 6.4 | 19.3 | 0.00 | 0.25 | 0.05 | 42 | |
| 20260502204353 | 9 | 267 | 9.7 | 19.3 | 0.00 | 0.25 | 0.05 | 41 | |
| 20260502203832 | 9 | 258 | 6.4 | 16.1 | 0.00 | 0.25 | 0.05 | 41 | |
| 20260502203333 | 9 | 280 | 6.4 | 16.1 | 0.00 | 0.25 | 0.05 | 42 | |
| 20260502202831 | 9 | 316 | 3.2 | 16.1 | 0.00 | 0.25 | 0.05 | 42 | |
| 20260502202331 | 9 | 231 | 8.0 | 19.3 | 0.00 | 0.25 | 0.05 | 41 | |
| 20260502201829 | 9 | 320 | 9.7 | 20.9 | 0.00 | 0.25 | 0.05 | 42 | |
| 20260502201329 | 9 | 272 | 9.7 | 19.3 | 0.00 | 0.25 | 0.05 | 42 | |
| 20260502200830 | 9 | 269 | 9.7 | 19.3 | 0.00 | 0.25 | 0.05 | 43 | |
| 20260502200350 | 8 | 278 | 3.2 | 16.1 | 0.00 | 0.25 | 0.05 | 44 | |
| 20260502195827 | 8 | 316 | 3.2 | 14.5 | 0.00 | 0.25 | 0.05 | 44 | |
| 20260502195327 | 8 | 277 | 9.7 | 16.1 | 0.00 | 0.25 | 0.05 | 43 | |
| 20260502194826 | 8 | 337 | 8.0 | 19.3 | 0.00 | 0.25 | 0.05 | 43 | |
| 20260502194326 | 9 | 239 | 8.0 | 19.3 | 0.00 | 0.25 | 0.05 | 42 | |
| 20260502193826 | 10 | 232 | 8.0 | 17.7 | 0.00 | 0.25 | 0.05 | 42 | |
| 20260502193327 | 10 | 224 | 0.0 | 12.9 | 0.00 | 0.25 | 0.05 | 42 | |
| 20260502192825 | 9 | 169 | 0.0 | 12.9 | 0.00 | 0.25 | 0.05 | 44 | |
| 20260502192327 | 9 | 199 | 4.8 | 17.7 | 0.00 | 0.25 | 0.05 | 43 | |
| 20260502191827 | 9 | 236 | 6.4 | 19.3 | 0.00 | 0.25 | 0.05 | 44 | |
| 20260502191324 | 8 | 241 | 0.0 | 12.9 | 0.00 | 0.25 | 0.05 | 45 | |
| 20260502190825 | 9 | 282 | 8.0 | 16.1 | 0.00 | 0.25 | 0.05 | 46 | |
| 20260502190324 | 8 | 225 | 8.0 | 16.1 | 0.00 | 0.25 | 0.05 | 44 | |
| 20260502185825 | 8 | 261 | 8.0 | 14.5 | 0.00 | 0.25 | 0.05 | 44 | |
| 20260502185325 | 8 | 264 | 6.4 | 14.5 | 0.00 | 0.25 | 0.05 | 46 | |
| 20260502184825 | 8 | 270 | 6.4 | 12.9 | 0.00 | 0.25 | 0.05 | 45 | |
| 20260502184325 | 8 | 325 | 8.0 | 17.7 | 0.00 | 0.25 | 0.05 | 46 | |
| 20260502183826 | 8 | 297 | 9.7 | 17.7 | 0.00 | 0.25 | 0.05 | 46 | |
| 20260502183323 | 8 | 238 | 3.2 | 9.7 | 0.00 | 0.25 | 0.05 | 46 | |
| 20260502182844 | 8 | 296 | 3.2 | 11.3 | 0.00 | 0.25 | 0.05 | 47 | |
| 20260502182323 | 8 | 300 | 4.8 | 12.9 | 0.00 | 0.25 | 0.05 | 47 | |
| 20260502181822 | 8 | 248 | 4.8 | 12.9 | 0.00 | 0.25 | 0.05 | 46 | |
| 20260502181343 | 8 | 295 | 8.0 | 16.1 | 0.00 | 0.25 | 0.05 | 46 | |
| 20260502180822 | 8 | 255 | 6.4 | 16.1 | 0.00 | 0.25 | 0.05 | 46 | |
| 20260502180320 | 8 | 234 | 6.4 | 14.5 | 0.00 | 0.25 | 0.05 | 46 | |
| 20260502170315 | 8 | 284 | 11.3 | 20.9 | 0.00 | 0.25 | 0.05 | 44 | |
| 20260502164329 | 8 | 253 | 12.9 | 22.5 | 0.00 | 0.25 | 0.05 | 44 | |
| 20260502163829 | 9 | 298 | 11.3 | 17.7 | 0.00 | 0.25 | 0.05 | 45 | |
| 20260502163330 | 8 | 236 | 8.0 | 25.7 | 0.00 | 0.25 | 0.05 | 45 | |
| 20260502162852 | 8 | 288 | 14.5 | 25.7 | 0.00 | 0.25 | 0.05 | 45 | |
| 20260502162331 | 8 | 274 | 8.0 | 17.7 | 0.00 | 0.25 | 0.05 | 47 | |
| 20260502161830 | 8 | 283 | 3.2 | 19.3 | 0.00 | 0.25 | 0.05 | 48 | |
| 20260502161352 | 8 | 337 | 8.0 | 19.3 | 0.00 | 0.25 | 0.05 | 48 | |
| 20260502160828 | 8 | 291 | 8.0 | 19.3 | 0.00 | 0.25 | 0.05 | 48 | |
| 20260502160327 | 8 | 316 | 8.0 | 17.7 | 0.00 | 0.25 | 0.05 | 48 | |
| 20260502152324 | 8 | 231 | 3.2 | 17.7 | 0.00 | 0.25 | 0.05 | 47 | |
| 20260502151824 | 8 | 14 | 8.0 | 17.7 | 0.00 | 0.25 | 0.05 | 49 | |
| 20260502151324 | 8 | 270 | 3.2 | 17.7 | 0.00 | 0.25 | 0.05 | 50 | |
| 20260502150824 | 8 | 273 | 8.0 | 14.5 | 0.00 | 0.25 | 0.05 | 50 | |
| 20260502150344 | 7 | 239 | 6.4 | 20.9 | 0.00 | 0.25 | 0.05 | 51 | |
| 20260502130328 | 6 | 235 | 0.0 | 6.4 | 0.00 | 0.25 | 0.05 | 77 | |
| 20260502123341 | 5 | 305 | 0.0 | 8.0 | 0.00 | 0.25 | 0.05 | 83 | |
| 20260502122819 | 5 | 280 | 3.2 | 9.7 | 0.00 | 0.25 | 0.05 | 83 | |
| 20260502122320 | 5 | 226 | 1.6 | 9.7 | 0.00 | 0.25 | 0.05 | 82 | |
| 20260502121819 | 5 | 300 | 1.6 | 14.5 | 0.00 | 0.25 | 0.05 | 83 | |
| 20260502121318 | 5 | 237 | 6.4 | 14.5 | 0.00 | 0.25 | 0.05 | 83 | |
| 20260502120838 | 5 | 305 | 3.2 | 12.9 | 0.00 | 0.25 | 0.05 | 85 | |
| 20260502120316 | 5 | 310 | 4.8 | 12.9 | 0.00 | 0.25 | 0.05 | 85 | |
| 20260502115816 | 5 | 228 | 1.6 | 6.4 | 0.00 | 0.25 | 0.05 | 85 | |
| 20260502115316 | 5 | 212 | 1.6 | 8.0 | 0.00 | 0.25 | 0.05 | 86 | |
| 20260502114817 | 5 | 282 | 1.6 | 8.0 | 0.00 | 0.25 | 0.05 | 86 | |
| 20260502114315 | 5 | 218 | 0.0 | 0.0 | 0.00 | 0.25 | 0.05 | 87 | |
| 20260502113815 | 5 | 256 | 0.0 | 0.0 | 0.00 | 0.25 | 0.05 | 87 | |
| 20260502113315 | 4 | 216 | 0.0 | 3.2 | 0.00 | 0.25 | 0.05 | 87 | |
| 20260502112834 | 4 | 232 | 0.0 | 3.2 | 0.00 | 0.25 | 0.05 | 87 | |
| 20260502112354 | 4 | 250 | 0.0 | 6.4 | 0.00 | 0.25 | 0.05 | 87 | |
| 20260502111833 | 4 | 254 | 1.6 | 6.4 | 0.00 | 0.25 | 0.05 | 88 | |
| 20260502111314 | 4 | 260 | 1.6 | 4.8 | 0.00 | 0.25 | 0.05 | 88 | |
| 20260502110813 | 4 | 231 | 0.0 | 4.8 | 0.00 | 0.25 | 0.05 | 88 | |
| 20260502110332 | 4 | 224 | 0.0 | 3.2 | 0.00 | 0.25 | 0.05 | 88 | |
| 20260502105854 | 4 | 225 | 0.0 | 3.2 | 0.00 | 0.25 | 0.05 | 88 | |
| 20260502105332 | 4 | 216 | 0.0 | 3.2 | 0.00 | 0.25 | 0.05 | 88 | |
| 20260502104832 | 4 | 228 | 0.0 | 3.2 | 0.00 | 0.25 | 0.05 | 88 | |
| 20260502104333 | 4 | 231 | 0.0 | 6.4 | 0.00 | 0.25 | 0.05 | 88 | |
| 20260502103833 | 4 | 229 | 0.0 | 6.4 | 0.00 | 0.25 | 0.05 | 88 | |
| 20260502103352 | 4 | 222 | 1.6 | 6.4 | 0.00 | 0.25 | 0.05 | 88 | |
| 20260502102832 | 4 | 243 | 0.0 | 6.4 | 0.00 | 0.25 | 0.05 | 88 | |
| 20260502102333 | 4 | 235 | 1.6 | 6.4 | 0.00 | 0.25 | 0.05 | 89 | |
| 20260502101831 | 4 | 226 | 3.2 | 6.4 | 0.00 | 0.25 | 0.05 | 89 | |
| 20260502101331 | 4 | 204 | 0.0 | 4.8 | 0.00 | 0.25 | 0.05 | 89 | |
| 20260502100831 | 4 | 171 | 1.6 | 4.8 | 0.00 | 0.25 | 0.05 | 89 | |
| 20260502100350 | 4 | 211 | 1.6 | 6.4 | 0.00 | 0.25 | 0.05 | 89 | |
| 20260502091327 | 4 | 181 | 1.6 | 6.4 | 0.00 | 0.25 | 0.05 | 89 | |
| 20260502090849 | 4 | 236 | 0.0 | 4.8 | 0.00 | 0.25 | 0.05 | 89 | |
| 20260502090328 | 4 | 239 | 0.0 | 4.8 | 0.00 | 0.25 | 0.05 | 89 | |
| 20260502071314 | 5 | 306 | 4.8 | 16.1 | 0.03 | 0.23 | 0.03 | 89 | |
| 20260502070833 | 5 | 273 | 8.0 | 17.7 | 0.03 | 0.23 | 0.03 | 89 | |
| 20260502070334 | 5 | 280 | 6.4 | 17.7 | 0.03 | 0.23 | 0.03 | 89 | |
| 20260502065833 | 5 | 284 | 8.0 | 14.5 | 0.03 | 0.23 | 0.03 | 89 | |
| 20260502065352 | 5 | 276 | 4.8 | 11.3 | 0.03 | 0.23 | 0.03 | 89 | |
| 20260502064830 | 6 | 222 | 6.4 | 11.3 | 0.03 | 0.23 | 0.03 | 89 | |
| 20260502064330 | 6 | 252 | 3.2 | 8.0 | 0.03 | 0.23 | 0.03 | 90 | |
| 20260502063831 | 6 | 227 | 0.0 | 3.2 | 0.03 | 0.23 | 0.03 | 90 | |
| 20260502063330 | 6 | 216 | 0.0 | 4.8 | 0.00 | 0.20 | 0.00 | 90 | |
| 20260502062830 | 6 | 216 | 0.0 | 4.8 | 0.00 | 0.20 | 0.00 | 90 | |
| 20260502062329 | 6 | 238 | 0.0 | 0.0 | 0.00 | 0.20 | 0.00 | 90 | |
| 20260502061830 | 6 | 200 | 0.0 | 0.0 | 0.00 | 0.20 | 0.00 | 91 | |
| 20260502061330 | 6 | 197 | 0.0 | 0.0 | 0.00 | 0.20 | 0.00 | 91 | |
| 20260502060829 | 6 | 197 | 0.0 | 0.0 | 0.00 | 0.20 | 0.00 | 91 | |
| 20260502060329 | 6 | 201 | 0.0 | 0.0 | 0.00 | 0.20 | 0.00 | 91 | |
| 20260502055830 | 6 | 214 | 0.0 | 0.0 | 0.00 | 0.20 | 0.00 | 91 | |
| 20260502055330 | 6 | 214 | 0.0 | 0.0 | 0.00 | 0.20 | 0.00 | 91 | |
| 20260502054829 | 6 | 214 | 0.0 | 0.0 | 0.00 | 0.20 | 0.00 | 90 | |
| 20260502054329 | 6 | 218 | 0.0 | 0.0 | 0.00 | 0.20 | 0.00 | 90 | |
| 20260502053829 | 6 | 200 | 0.0 | 0.0 | 0.00 | 0.20 | 0.00 | 90 | |
| 20260502053328 | 6 | 227 | 0.0 | 0.0 | 0.00 | 0.20 | 0.00 | 90 | |
| 20260502052847 | 6 | 226 | 0.0 | 0.0 | 0.00 | 0.20 | 0.20 | 90 | |
| 20260502052347 | 6 | 226 | 0.0 | 0.0 | 0.00 | 0.20 | 0.20 | 90 | |
| 20260502051825 | 6 | 226 | 0.0 | 1.6 | 0.00 | 0.20 | 0.20 | 90 |